Location: Recife
(8.0585°S, 34.8848°W)
Time: 10:47:27
(UTC-03:00)

Altair - Pass Details

Date: 18 April 2026
Orbit: 1501 x 1682 km, 47.2° (Epoch: 20 May)

Event Time Altitude Azimuth Distance (km) Brightness Sun altitude
Rises 19:32:31 0° 342° (NNW) 4,680 10.3 -34.2°
Reaches altitude 10° 19:36:02 10° 352° (N) 3,679 9.6 -35.1°
Enters shadow 19:40:19 25° 14° (NNE) 2,691 8.6 -36.1°
Maximum altitude 19:43:57 32° 51° (NE) 2,348 - -37.0°
Drops below altitude 10° 19:51:47 10° 111° (ESE) 3,652 - -38.9°
Sets 19:55:13 0° 120° (ESE) 4,640 - -39.8°
